Stündliche Wetter Otloczyn

Heute, 10 April, Samstag

Zeit Temperatur Niederschläge Wind Luftdruck Luftfeuchtigkeit
00:00 +3°C° 0 mm 3 m/S 755 mmHg 80%
01:00 +3°C° 0 mm 3 m/S 755 mmHg 82%
02:00 +3°C° 0 mm 3 m/S 755 mmHg 82%
03:00 +4°C° 0 mm 2 m/S 755 mmHg 83%
04:00 +4°C° 0 mm 2 m/S 755 mmHg 83%
05:00 +4°C° 0 mm 2 m/S 755 mmHg 81%
06:00 +5°C° 0 mm 2 m/S 755 mmHg 78%
07:00 +6°C° 0 mm 2 m/S 755 mmHg 75%
08:00 +7°C° 0 mm 2 m/S 756 mmHg 71%
09:00 +9°C° 0 mm 2 m/S 756 mmHg 67%
10:00 +10°C° 0 mm 2 m/S 756 mmHg 63%
11:00 +9°C° 0.3 mm 2 m/S 756 mmHg 69%
12:00 +9°C° 0.3 mm 2 m/S 757 mmHg 74%
13:00 +8°C° 0.3 mm 2 m/S 757 mmHg 79%
14:00 +8°C° 0.2 mm 2 m/S 757 mmHg 83%
15:00 +7°C° 0.2 mm 2 m/S 757 mmHg 87%
16:00 +7°C° 0.2 mm 2 m/S 757 mmHg 91%
17:00 +6°C° 0 mm 2 m/S 758 mmHg 92%
18:00 +6°C° 0 mm 2 m/S 758 mmHg 92%
19:00 +7°C° 0 mm 1 m/S 758 mmHg 93%
20:00 +7°C° 0 mm 1 m/S 758 mmHg 93%
21:00 +7°C° 0 mm 1 m/S 759 mmHg 93%
22:00 +7°C° 0 mm 1 m/S 759 mmHg 93%
23:00 +7°C° 0 mm 1 m/S 759 mmHg 93%

Morgen, 11 April, Sonntag

Zeit Temperatur Niederschläge Wind Luftdruck Luftfeuchtigkeit
00:00 +6°C° 0 mm 2 m/S 759 mmHg 93%
01:00 +6°C° 0 mm 2 m/S 759 mmHg 94%
02:00 +6°C° 0 mm 2 m/S 759 mmHg 94%
03:00 +6°C° 0 mm 2 m/S 758 mmHg 95%
04:00 +6°C° 0 mm 2 m/S 758 mmHg 96%
05:00 +7°C° 0 mm 3 m/S 758 mmHg 93%
06:00 +7°C° 0 mm 3 m/S 758 mmHg 91%
07:00 +7°C° 0 mm 4 m/S 758 mmHg 88%
08:00 +9°C° 0 mm 5 m/S 758 mmHg 81%
09:00 +12°C° 0 mm 5 m/S 757 mmHg 73%
10:00 +14°C° 0 mm 6 m/S 757 mmHg 65%
11:00 +15°C° 0 mm 6 m/S 757 mmHg 60%
12:00 +16°C° 0 mm 6 m/S 757 mmHg 55%
13:00 +17°C° 0 mm 6 m/S 756 mmHg 49%
14:00 +17°C° 0 mm 6 m/S 756 mmHg 50%
15:00 +17°C° 0 mm 6 m/S 756 mmHg 52%
16:00 +16°C° 0 mm 6 m/S 756 mmHg 53%
17:00 +15°C° 0 mm 6 m/S 756 mmHg 55%
18:00 +14°C° 0 mm 6 m/S 756 mmHg 57%
19:00 +11°C° 0 mm 6 m/S 757 mmHg 59%
20:00 +11°C° 0 mm 6 m/S 757 mmHg 63%
21:00 +10°C° 0 mm 6 m/S 757 mmHg 67%
22:00 +10°C° 0 mm 5 m/S 757 mmHg 71%
23:00 +9°C° 0 mm 5 m/S 757 mmHg 74%

übermorgen, 12 April, Montag

Zeit Temperatur Niederschläge Wind Luftdruck Luftfeuchtigkeit
00:00 +9°C° 0 mm 5 m/S 756 mmHg 76%
01:00 +10°C° 0 mm 4 m/S 756 mmHg 79%
02:00 +10°C° 0 mm 4 m/S 756 mmHg 83%
03:00 +8°C° 0 mm 4 m/S 756 mmHg 86%
04:00 +9°C° 0 mm 3 m/S 756 mmHg 90%
05:00 +10°C° 0 mm 4 m/S 756 mmHg 88%
06:00 +10°C° 0 mm 4 m/S 756 mmHg 85%
07:00 +11°C° 0 mm 4 m/S 756 mmHg 82%
08:00 +12°C° 0 mm 3 m/S 756 mmHg 76%
09:00 +13°C° 0 mm 3 m/S 756 mmHg 69%
10:00 +14°C° 0 mm 3 m/S 756 mmHg 62%
11:00 +16°C° 0 mm 3 m/S 756 mmHg 61%
12:00 +16°C° 0 mm 3 m/S 756 mmHg 60%
13:00 +17°C° 0 mm 3 m/S 756 mmHg 59%
14:00 +14°C° 0 mm 4 m/S 756 mmHg 65%
15:00 +12°C° 0 mm 5 m/S 756 mmHg 71%
16:00 +10°C° 0 mm 6 m/S 757 mmHg 76%
17:00 +8°C° 0 mm 6 m/S 757 mmHg 77%
18:00 +7°C° 0 mm 6 m/S 758 mmHg 77%
19:00 +4°C° 0 mm 6 m/S 759 mmHg 78%
20:00 +4°C° 0.2 mm 6 m/S 759 mmHg 80%
21:00 +3°C° 0.2 mm 6 m/S 760 mmHg 82%
22:00 +2°C° 0.2 mm 6 m/S 760 mmHg 84%
23:00 +2°C° 0.1 mm 6 m/S 760 mmHg 84%

13 April, Dienstag

Zeit Temperatur Niederschläge Wind Luftdruck Luftfeuchtigkeit
00:00 +1°C° 0.1 mm 6 m/S 760 mmHg 84%
01:00 +1°C° 0.1 mm 6 m/S 760 mmHg 84%
02:00 +1°C° 0.2 mm 6 m/S 761 mmHg 86%
03:00 0°C° 0.2 mm 5 m/S 761 mmHg 88%
04:00 0°C° 0.2 mm 5 m/S 761 mmHg 90%
05:00 0°C° 0.3 mm 4 m/S 761 mmHg 90%
06:00 0°C° 0.3 mm 4 m/S 761 mmHg 89%
07:00 0°C° 0.3 mm 4 m/S 762 mmHg 89%
08:00 +1°C° 0.4 mm 4 m/S 762 mmHg 86%
09:00 +2°C° 0.4 mm 3 m/S 762 mmHg 84%
10:00 +3°C° 0.4 mm 3 m/S 762 mmHg 82%
11:00 +4°C° 0.2 mm 4 m/S 762 mmHg 75%
12:00 +5°C° 0.2 mm 4 m/S 762 mmHg 68%
13:00 +6°C° 0.2 mm 4 m/S 762 mmHg 61%
14:00 +6°C° 0 mm 4 m/S 762 mmHg 58%
15:00 +7°C° 0 mm 4 m/S 761 mmHg 54%
16:00 +7°C° 0 mm 4 m/S 761 mmHg 50%
17:00 +7°C° 0 mm 3 m/S 761 mmHg 56%
18:00 +5°C° 0 mm 3 m/S 761 mmHg 63%
19:00 +4°C° 0 mm 3 m/S 761 mmHg 69%
20:00 +3°C° 0 mm 3 m/S 762 mmHg 73%
21:00 +4°C° 0 mm 2 m/S 762 mmHg 77%
22:00 +3°C° 0 mm 2 m/S 762 mmHg 82%
23:00 +3°C° 0 mm 2 m/S 762 mmHg 83%

14 April, Mittwoch

Zeit Temperatur Niederschläge Wind Luftdruck Luftfeuchtigkeit
00:00 +3°C° 0 mm 2 m/S 762 mmHg 83%
01:00 +2°C° 0 mm 2 m/S 762 mmHg 84%
02:00 +2°C° 0 mm 2 m/S 762 mmHg 83%
03:00 +2°C° 0 mm 2 m/S 762 mmHg 82%
04:00 +2°C° 0 mm 2 m/S 762 mmHg 81%
05:00 +1°C° 0 mm 3 m/S 762 mmHg 79%
06:00 +2°C° 0 mm 3 m/S 762 mmHg 77%
07:00 +1°C° 0 mm 4 m/S 762 mmHg 75%
08:00 +4°C° 0 mm 4 m/S 762 mmHg 68%
09:00 +5°C° 0 mm 5 m/S 762 mmHg 62%
10:00 +5°C° 0 mm 6 m/S 762 mmHg 55%
11:00 +5°C° 0 mm 6 m/S 761 mmHg 51%
12:00 +7°C° 0 mm 6 m/S 761 mmHg 47%
13:00 +8°C° 0 mm 6 m/S 761 mmHg 42%
14:00 +7°C° 0 mm 6 m/S 761 mmHg 46%
15:00 +7°C° 0 mm 6 m/S 761 mmHg 49%
16:00 +5°C° 0 mm 6 m/S 761 mmHg 52%
17:00 +4°C° 0 mm 6 m/S 761 mmHg 57%
18:00 +3°C° 0 mm 6 m/S 761 mmHg 61%
19:00 +2°C° 0 mm 6 m/S 761 mmHg 66%
20:00 +1°C° 0 mm 6 m/S 761 mmHg 68%
21:00 +1°C° 0 mm 6 m/S 761 mmHg 71%
22:00 +1°C° 0 mm 5 m/S 762 mmHg 73%
23:00 +1°C° 0 mm 6 m/S 761 mmHg 74%

15 April, Donnerstag

Zeit Temperatur Niederschläge Wind Luftdruck Luftfeuchtigkeit
00:00 -1°C° 0 mm 6 m/S 761 mmHg 74%
01:00 -1°C° 0 mm 6 m/S 761 mmHg 75%
02:00 -1°C° 0 mm 6 m/S 761 mmHg 75%
03:00 -1°C° 0 mm 6 m/S 761 mmHg 75%
04:00 -1°C° 0 mm 6 m/S 761 mmHg 75%
05:00 -1°C° 0 mm 7 m/S 761 mmHg 76%
06:00 -1°C° 0 mm 7 m/S 761 mmHg 78%
07:00 -1°C° 0 mm 7 m/S 761 mmHg 80%
08:00 -1°C° 0.3 mm 7 m/S 761 mmHg 82%
09:00 0°C° 0.3 mm 8 m/S 761 mmHg 84%
10:00 0°C° 0.3 mm 8 m/S 761 mmHg 86%
11:00 0°C° 0.7 mm 8 m/S 761 mmHg 86%
12:00 0°C° 0.7 mm 7 m/S 761 mmHg 87%
13:00 0°C° 0.7 mm 7 m/S 761 mmHg 88%
14:00 0°C° 0.7 mm 7 m/S 761 mmHg 90%
15:00 0°C° 0.7 mm 7 m/S 761 mmHg 93%
16:00 -1°C° 0.7 mm 7 m/S 761 mmHg 95%
17:00 -1°C° 0.6 mm 7 m/S 761 mmHg 96%
18:00 -1°C° 0.6 mm 7 m/S 761 mmHg 96%
19:00 0°C° 0.6 mm 7 m/S 761 mmHg 96%
20:00 0°C° 0.2 mm 7 m/S 761 mmHg 94%
21:00 0°C° 0.2 mm 7 m/S 761 mmHg 92%
22:00 +2°C° 0.2 mm 7 m/S 762 mmHg 90%
23:00 +2°C° 0 mm 6 m/S 762 mmHg 88%
Mehr zeigen

Wir brauchen deine Erlaubnis

Meteoprog und unser Service Anbieter werden persönliche Daten aufbewahren, so wie Cookies, Geräte Bezeichnung oder ähnliche Technologien von deinem Gerät und Prozess, so wie Persönliche Daten Inhalte und Werbungen, genauso wie social Media und den Verkehr zu analysieren.

  • Aufbewahrung und/oder Zugang zu deiner Geräte Informationen.

    Cookies, Geräte Bezeichnung oder andere Informationen, können aufbewahrt oder Zugang zu deinem Gerät erhalten, für den Grund, der oben angegeben wird.

  • Personalisierte Werbung und Inhalte, Messungen, Einblick in das Publikum und Produkt Entwicklung.

    Werbungen und Inhalte können personalisiert werden, basierend auf ein Profil. Mehr Daten können besser personalisierte Werbungen und Inhalte hinzufügen. Werbung und Inhalte können gezeigt und gemessen werden. Einblicke über das Publikum, welche die Werbung gesehen haben und den Inhalt, können abgeleitet werden. So wie Daten können genutzt werden, um es zu verbessern oder die Benutzer Erfahrung zu verbessern das System und die Software.

Wenn du “Ich stimme zu” klickst, erlaubst du uns, die Cookies zu benutzen die Geräte Bezeichnung, den Web oder ähnliche Technologien zu benutzen. Deine Settings, können in deinem Gerät bei deinem Browser geändert werden.

Für den bestimmten Zweck, berechtigten Interessen beruhen darauf, mehr als auf den Inhalt. Du kannst mehr darüber in unseren Privaten und Cookie Politik lesen.